Phoenix Deer Valley, AZ

7:21 AM MST on September 18, 2019 (GMT -0700)
Phoenix-Deer Valley Municipal

Weather History for KDVT - August, 2019

Change the Weather History Date:

Friday, August 23, 2019

  Actual Average Record
Temperature  
Mean Temperature 90 °F -  
Max Temperature 100 °F 99 °F 109 °F (2011)
Min Temperature 81 °F 79 °F 71 °F (2012)
Cooling Degree Days 26    
Growing Degree Days 40 (Base 50)    
Moisture  
Dew Point 58 °F    
Average Humidity 33    
Maximum Humidity 47    
Minimum Humidity 22    
Precipitation  
Precipitation 0.00 in - - ()
Sea Level Pressure  
Sea Level Pressure 29.76 in    
Wind  
Wind Speed 5 mph ()    
Max Wind Speed 17 mph    
Max Gust Speed 25 mph    
Visibility 10.0 miles    
Events      
Averages and records for this station are not official NWS values.
T = Trace of Precipitation, MM = Missing Value Source: Averaged Metar Reports

Daily Weather History Graph

Daily Weather History Graph

Search for Another Location

Airport or City:

Astronomy

Aug. 23, 2019 Rise Set
Actual Time 5:55 AM MST 7:05 PM MST
Civil Twilight 5:30 AM MST 7:31 PM MST
Nautical Twilight 4:59 AM MST 8:01 PM MST
Astronomical Twilight 4:27 AM MST 8:33 PM MST
Moon 11:58 PM MST (8/23) 1:15 PM MST (8/23)
Length of Visible Light 14h 01m
Length of Day
13h 09m
Waning Gibbous, 48% of the Moon is Illuminated
Aug 23
Waning Gibbous
Aug 30
New
Sep 5
First Quarter
Sep 13
Full
Sep 21
Last Quarter

Hourly Weather History & Observations

Time (MST) Temp. Heat Index Dew Point Humidity Pressure Visibility Wind Dir Wind Speed Gust Speed Precip Events Conditions
12:53 AM 89.1 °F 89.0 °F 61.0 °F 39% 29.72 in 10.0 mi ESE 4.6 mph - N/A   Clear
1:53 AM 87.1 °F 87.0 °F 61.0 °F 41% 29.73 in 10.0 mi East 5.8 mph - N/A   Clear
2:53 AM 86.0 °F 86.3 °F 62.1 °F 44% 29.75 in 10.0 mi North 3.5 mph - N/A   Clear
3:53 AM 84.0 °F 84.4 °F 61.0 °F 46% 29.75 in 10.0 mi North 5.8 mph - N/A   Clear
4:53 AM 82.0 °F 82.4 °F 60.1 °F 47% 29.76 in 10.0 mi NNE 6.9 mph - N/A   Clear
5:53 AM 81.0 °F 81.3 °F 59.0 °F 47% 29.77 in 10.0 mi NNE 4.6 mph - N/A   Clear
6:53 AM 84.0 °F 83.3 °F 57.0 °F 40% 29.80 in 10.0 mi Calm Calm - N/A   Clear
7:53 AM 87.1 °F 86.5 °F 59.0 °F 39% 29.82 in 10.0 mi South 4.6 mph - N/A   Clear
8:53 AM 89.1 °F 88.2 °F 59.0 °F 36% 29.83 in 10.0 mi West 3.5 mph - N/A   Clear
9:53 AM 90.0 °F 89.1 °F 59.0 °F 35% 29.83 in 10.0 mi Variable 3.5 mph - N/A   Clear
10:53 AM 93.0 °F 92.3 °F 59.0 °F 32% 29.83 in 10.0 mi Calm Calm - N/A   Clear
11:53 AM 95.0 °F 94.4 °F 59.0 °F 30% 29.80 in 10.0 mi WNW 8.1 mph - N/A   Clear
12:53 PM 97.0 °F 96.5 °F 59.0 °F 28% 29.78 in 10.0 mi Variable 3.5 mph - N/A   Clear
1:53 PM 98.1 °F 97.7 °F 59.0 °F 27% 29.76 in 10.0 mi Variable 4.6 mph - N/A   Clear
2:53 PM 99.0 °F 98.1 °F 57.9 °F 25% 29.73 in 10.0 mi SSW 12.7 mph 17.3 mph N/A   Clear
3:53 PM 100.0 °F 98.8 °F 55.9 °F 23% 29.71 in 10.0 mi SSW 5.8 mph - N/A   Clear
4:53 PM 100.0 °F 98.3 °F 55.0 °F 22% 29.69 in 10.0 mi SW 5.8 mph - N/A   Clear
5:53 PM 100.0 °F 98.3 °F 55.0 °F 22% 29.68 in 10.0 mi West 5.8 mph - N/A   Clear
6:53 PM 98.1 °F 96.4 °F 55.9 °F 24% 29.69 in 10.0 mi WSW 6.9 mph - N/A   Clear
7:53 PM 98.1 °F 96.1 °F 54.0 °F 23% 29.71 in 10.0 mi SW 8.1 mph - N/A   Clear
8:53 PM 96.1 °F 94.1 °F 55.0 °F 25% 29.75 in 10.0 mi SW 4.6 mph - N/A   Clear
9:53 PM 95.0 °F 92.5 °F 53.1 °F 24% 29.76 in 10.0 mi WSW 10.4 mph - N/A   Clear
10:53 PM 91.9 °F 92.5 °F 62.1 °F 37% 29.78 in 10.0 mi WSW 16.1 mph - N/A   Clear
11:53 PM 89.1 °F 90.3 °F 64.0 °F 43% 29.81 in 10.0 mi WSW 17.3 mph 25.3 mph N/A   Clear